This is the latest recevied weather packets stored in our database for station/object SP1BMW-13. If no packets are shown the sender has not sent any weather packets the latest 10 day(s).
| Time | Temp. | Humidity | Pressure | Rain* | Wind** | Luminosity | Snow |
|---|---|---|---|---|---|---|---|
| 1787789175 | 15° C | 78% | 1021.4 hPa | 0 mm | 0.45 m/s, 100° | 0 W/m² | - |
| 1787789115 | 15° C | 77% | 1021.5 hPa | 0 mm | 0 m/s | 0 W/m² | - |
| 1787789054 | 15° C | 77% | 1021.5 hPa | 0 mm | 0.45 m/s, 337° | 0 W/m² | - |
| 1787788995 | 15° C | 77% | 1021.7 hPa | 0 mm | 0.45 m/s, 66° | 0 W/m² | - |
| 1787788935 | 15° C | 78% | 1021.7 hPa | 0 mm | 1.34 m/s, 1° | 0 W/m² | - |
| 1787788875 | 15° C | 78% | 1021.6 hPa | 0 mm | 1.34 m/s, 172° | 0 W/m² | - |
| 1787788815 | 15° C | 78% | 1021.6 hPa | 0 mm | 0 m/s | 0 W/m² | - |
| 1787788755 | 15° C | 78% | 1021.5 hPa | 0 mm | 0.89 m/s, 29° | 0 W/m² | - |
| 1787788695 | 15° C | 78% | 1021.6 hPa | 0 mm | 1.34 m/s, 126° | 0 W/m² | - |
| 1787788635 | 15° C | 78% | 1021.7 hPa | 0 mm | 0.89 m/s, 49° | 0 W/m² | - |
| 1787788575 | 15° C | 78% | 1021.5 hPa | 0 mm | 0.45 m/s, 80° | 0 W/m² | - |
| 1787788515 | 15° C | 78% | 1021.6 hPa | 0 mm | 0.45 m/s, 150° | 0 W/m² | - |
| 1787788455 | 15° C | 78% | 1021.6 hPa | 0 mm | 0.89 m/s, 104° | 0 W/m² | - |
| 1787788395 | 15° C | 78% | 1021.7 hPa | 0 mm | 1.34 m/s, 24° | 0 W/m² | - |
| 1787788335 | 15° C | 78% | 1021.7 hPa | 0 mm | 0.45 m/s, 22° | 0 W/m² | - |
| 1787788275 | 15° C | 78% | 1021.6 hPa | 0 mm | 0 m/s | 0 W/m² | - |
| 1787788215 | 15° C | 78% | 1021.7 hPa | 0 mm | 0.89 m/s, 51° | 0 W/m² | - |
| 1787788155 | 15° C | 78% | 1021.7 hPa | 0 mm | 0 m/s | 0 W/m² | - |
| 1787788095 | 15° C | 78% | 1021.6 hPa | 0 mm | 0.45 m/s, 96° | 0 W/m² | - |
| 1787788035 | 15° C | 78% | 1021.7 hPa | 0 mm | 1.34 m/s, 42° | 0 W/m² | - |
| 1787787975 | 14.44° C | 78% | 1021.6 hPa | 0 mm | 0 m/s | 0 W/m² | - |
| 1787787915 | 14.44° C | 79% | 1021.6 hPa | 0 mm | 0.45 m/s, 40° | 0 W/m² | - |
| 1787787855 | 14.44° C | 79% | 1021.7 hPa | 0 mm | 0 m/s | 0 W/m² | - |
| 1787787795 | 14.44° C | 79% | 1021.9 hPa | 0 mm | 0.45 m/s, 152° | 0 W/m² | - |
| 1787787735 | 14.44° C | 80% | 1021.6 hPa | 0 mm | 0.45 m/s, 54° | 0 W/m² | - |
* Rain latest hour (hover to see other rain measurements)
** Current wind speed in m/s (hover to see current wind gust speed)